Location: *
(50.5731°N, 1.8381°E)
Time: 18:23:26
(UTC+00:00)

Daily predictions for brighter satellites

Satellite Brightness Start Highest point End
(mag) Time Altitude Azimuth Time Altitude Azimuth Time Altitude Azimuth
TSX-5 3.6 19:26:58 10° NNW 19:30:23 83° ENE 19:34:30 10° SE
Cosmos 1656 4.0 19:24:52 10° NNW 19:30:28 54° NE 19:35:58 10° SE
Cosmos 1536 4.4 19:30:25 10° SE 19:33:16 19° E 19:36:06 10° NE
Cosmos 1553 Rocket 4.2 19:27:33 10° SSE 19:33:37 54° E 19:39:50 10° NNE
Cosmos 1515 3.9 19:36:44 10° N 19:40:29 53° ENE 19:44:14 10° SSE
ADEOS Rocket 3.5 19:35:09 10° NNE 19:40:55 43° E 19:47:13 10° SSE
Cosmos 2112 Rocket 4.0 19:36:40 10° NNW 19:41:58 80° ENE 19:47:10 10° SSE
Cosmos 1833 Rocket 3.8 19:38:39 10° SSE 19:42:50 22° E 19:47:01 10° NE
SPOT 3 Rocket 3.9 19:38:15 10° S 19:43:25 70° WSW 19:48:35 10° NNW
Cosmos 1417 Rocket 4.5 19:39:42 10° S 19:45:44 64° E 19:51:48 10° NNE
GENESIS II 4.3 19:42:05 10° SW 19:46:07 89° NNW 19:50:15 10° NE
BREEZE-M DEB (TANK) 3.1 19:43:30 10° WSW 19:47:27 72° SSE 19:54:10 10° ENE
Cosmos 2082 Rocket 3.6 19:46:00 10° SE 19:49:38 18° E 19:53:16 10° ENE
USA 186 3.2 19:48:00 10° SSW 19:50:22 31° W 19:52:56 10° NNW
Cosmos 1709 Rocket 4.5 19:45:32 10° N 19:51:19 41° ENE 19:57:06 10° SE
Cosmos 2278 4.3 19:46:58 10° NNW 19:52:24 45° NE 19:57:20 12° ESE
GP-B 4.0 19:49:03 10° NNE 19:53:03 31° E 19:56:55 10° SE
Cosmos 1697 Rocket 3.1 19:49:02 10° NNW 19:54:36 52° NE 19:59:36 13° SE
MetOp-A 4.2 19:52:09 10° SSE 19:57:28 71° ENE 20:02:49 10° NNW
SL-16 R/B 4.1 19:53:55 10° N 19:57:48 18° NNE 20:01:41 10° ENE
CZ-2C R/B 3.8 19:54:58 10° NE 19:59:06 23° E 20:02:40 13° SE
Cosmos 1666 4.4 19:57:54 14° ESE 19:59:24 17° E 20:01:54 10° NE
USA 229 DEB 4.1 19:52:29 10° NW 19:59:32 60° NE 20:06:08 13° ESE
USA 229 4.1 19:52:35 10° NW 19:59:39 60° NE 20:06:14 13° ESE
S3M 4.0 19:54:05 10° S 20:00:16 66° E 20:06:25 10° NNE
Resurs 1-3 3.7 19:59:19 10° SSE 20:03:42 80° WSW 20:08:08 10° NNW
Cosmos 1908 Rocket 4.1 20:02:50 10° SSE 20:07:01 40° E 20:11:12 10° NNE
Meteor 1-11 Rocket 4.0 20:01:39 10° S 20:07:26 56° E 20:13:17 10° NNE
SJ 16-02 2.0 20:03:59 10° SSE 20:07:59 35° ESE 20:12:01 10° NE
Meteor 1-5 Rocket 4.2 20:04:29 10° S 20:10:06 63° E 20:15:33 10° NNE
Cosmos 1900 4.3 20:05:41 10° NW 20:10:45 85° NE 20:14:43 16° SE
Cosmos 1745 Rocket 4.0 20:05:12 10° N 20:11:23 86° W 20:17:31 10° S
Cosmos 2360 Rocket 4.4 20:09:14 10° N 20:12:02 14° NNE 20:14:51 10° NE
Cosmos 1898 Rocket 3.6 20:07:05 10° S 20:12:12 55° ESE 20:17:19 10° NNE
Terra 3.6 20:10:05 12° E 20:12:45 18° ENE 20:15:54 10° NNE
Cosmos 2315 Rocket 4.5 20:08:54 10° SSE 20:14:48 42° E 20:20:41 10° NNE
Cosmos 1980 Rocket 2.7 20:13:30 10° NNW 20:18:56 47° NE 20:22:50 18° ESE
Cosmos 1680 Rocket 4.4 20:14:14 10° NW 20:19:14 46° WSW 20:24:12 10° S
USA 267 3.4 20:12:53 10° ENE 20:19:26 82° NNW 20:26:00 10° WSW
ASTEX 1 3.4 20:15:23 10° N 20:20:19 63° E 20:25:11 10° S
CZ-2C R/B 2.9 20:15:36 10° SSE 20:20:22 87° W 20:25:17 10° NNW
ARGOS 3.8 20:16:32 10° S 20:21:47 54° W 20:27:03 10° NNW
ERS-1 Rocket 3.8 20:18:47 18° ESE 20:21:54 36° ENE 20:26:28 10° N
Geosat 4.4 20:19:39 18° ESE 20:23:12 53° NE 20:28:06 10° NNW
H-2A R/B 3.0 20:21:21 10° S 20:26:07 45° W 20:30:52 10° NNW
SL-08 RB Rocket 4.3 20:23:26 10° S 20:27:55 56° W 20:32:28 10° NNW
Meteor 2-14 Rocket 4.4 20:24:04 10° N 20:30:13 89° E 20:36:12 11° S
Iridium 2 3.6 20:29:49 15° S 20:32:50 68° E 20:36:35 10° N
COSMOS 2406 3.3 20:28:10 10° SSW 20:33:53 83° WNW 20:39:39 10° NNE
Abrixas rocket 2.1 20:32:20 10° W 20:35:22 57° S 20:36:17 37° SE
Cosmos 1867 4.4 20:31:14 10° NW 20:36:28 42° NE 20:39:59 19° E
Cosmos 1500 3.2 20:32:40 10° SSW 20:36:32 82° W 20:40:24 10° N
Cosmos 1378 Rocket 4.0 20:33:03 10° NNW 20:37:25 61° W 20:41:39 11° S
Sich 1 Rocket 4.1 20:36:06 23° SSE 20:38:21 40° E 20:42:33 10° NNE
Meteor 1-23 Rocket 4.2 20:34:13 10° NNW 20:39:59 88° E 20:44:27 17° SSE
Cosmos 158 Rocket 4.4 20:35:01 10° NNW 20:40:18 64° WSW 20:44:35 16° S
Cosmos 2369 3.8 20:35:49 10° NNW 20:41:29 73° WSW 20:45:32 19° SSE
Resurs 01 Rocket 2.7 20:37:57 10° S 20:42:09 44° W 20:46:24 10° NNW
Cosmos 1733 Rocket 4.4 20:38:35 10° SW 20:42:39 40° WNW 20:46:46 10° N
Cosmos 1975 4.3 20:43:11 20° E 20:43:11 20° E 20:46:04 10° NE
Cosmos 839 Rocket 4.5 20:35:23 10° SSW 20:44:07 82° SE 20:51:04 10° NE
Cosmos 1782 Rocket 3.6 20:43:21 22° SSE 20:46:04 56° E 20:50:23 10° NNE
Lacrosse 4 Rocket 4.1 20:45:15 10° N 20:46:04 10° NNE 20:46:53 10° NNE
SPOT 5 3.2 20:46:29 28° ESE 20:48:08 40° ENE 20:52:15 10° N
Cosmos 2098 Rocket 3.8 20:45:15 10° NNW 20:49:55 69° W 20:55:19 12° S
Cosmos 1340 2.8 20:49:56 36° SSE 20:51:04 50° E 20:54:44 10° NNE
Cosmos 990 Rocket 4.0 20:46:15 10° SSW 20:51:28 82° WNW 20:56:42 10° NNE
NOSS 3-1 (C) 4.0 20:44:19 10° NW 20:51:41 87° NE 20:57:08 24° SE
Aureole 3 Rocket 3.3 20:50:42 10° SSW 20:53:59 46° WNW 20:56:57 10° N
Cosmos 1937 Rocket 3.5 20:49:18 10° SSW 20:54:37 88° ESE 20:59:59 10° NNE
Spot 2 Rocket 3.9 20:50:56 15° S 20:55:06 60° WSW 21:00:09 10° NNW
USA 234 4.3 20:51:15 15° S 20:55:58 34° SW 21:01:51 10° WNW
Cosmos 1346 Rocket 2.6 20:55:45 32° S 20:57:22 66° E 21:01:13 10° NNE
Cosmos 372 Rocket 4.4 20:57:46 30° SSE 20:59:36 40° ESE 21:04:29 10° NE
USA 245 4.2 21:00:07 24° S 21:03:22 80° WSW 21:09:25 10° NNW
BREEZE-M DEB (TANK) 4.1 21:04:50 10° WSW 21:05:38 15° SW 21:05:38 15° SW
Cosmos 2151 Rocket 4.5 21:07:25 30° E 21:07:35 31° E 21:11:30 10° NNE
Cosmos 1975 Rocket 3.2 21:03:37 10° NNW 21:08:04 73° W 21:10:16 29° S
Cosmos 1536 3.8 21:05:25 10° SSW 21:09:21 47° WNW 21:13:19 10° N
CZ-4C R/B 3.8 21:11:28 17° E 21:11:28 17° E 21:13:40 10° ENE
Cosmos 2322 Rocket 3.1 21:04:31 10° NNW 21:09:43 36° NE 21:12:15 24° E
MINOTAUR IV R/B 4.4 21:05:25 10° SSW 21:09:54 83° ESE 21:14:25 10° NNE
EO 1 Del DPAF 3.2 21:09:21 10° NNE 21:13:07 58° ESE 21:13:29 55° SE
IGS 5A 3.3 21:14:56 45° SSE 21:16:10 90° ENE 21:20:21 10° NNW
Cosmos 405 3.7 21:13:54 10° N 21:17:11 38° ENE 21:17:11 38° ENE
STPSAT 2 (USA 217) 4.5 21:15:41 35° S 21:17:29 65° ESE 21:21:56 10° NNE
Cosmos 2360 4.4 21:12:48 10° NW 21:18:28 65° WSW 21:21:09 31° S
Landsat 7 3.8 21:17:23 35° S 21:19:24 79° WSW 21:24:12 10° NNW
SPOT 1/Viking Rocket 3.6 21:18:51 32° S 21:21:19 79° WSW 21:26:35 10° NNW
Mayak 1.0 21:22:13 10° NE 21:23:04 12° ENE 21:23:04 12° ENE
Cosmos 1743 2.5 21:24:47 68° SE 21:25:00 71° E 21:28:49 10° NNE
Cosmos 1833 Rocket 2.9 21:20:33 10° SW 21:26:11 74° WNW 21:31:51 10° NNE
ADEOS Rocket 4.3 21:20:53 10° N 21:26:27 42° WNW 21:32:33 10° SW
Cosmos 2150 Rocket 3.8 21:24:01 25° SSW 21:27:02 77° ESE 21:32:17 10° NNE
Cosmos 1300 Rocket 3.8 21:29:26 48° E 21:29:32 48° E 21:33:45 10° NNE
USA 32 4.3 21:24:31 10° NNW 21:29:43 64° W 21:32:26 28° SSW
CARTOSAT-1 3.5 21:29:29 54° S 21:30:28 87° WSW 21:34:50 10° NNW
Cosmos 2298 Rocket 4.0 21:28:08 18° SSW 21:32:13 89° WNW 21:37:36 10° NNE
Cosmos 2082 Rocket 2.1 21:27:17 10° SSW 21:32:56 87° WNW 21:38:41 10° NNE
Meteor 2-8 Rocket 4.4 21:30:01 21° SSW 21:34:16 81° W 21:40:23 10° N
Cosmos 1666 3.6 21:32:46 25° SW 21:34:40 46° WNW 21:38:22 10° N
Cosmos 2154 Rocket 4.1 21:29:51 10° N 21:36:04 60° ENE 21:38:05 41° SE
Nadezhda 1 Rocket 4.1 21:34:44 41° SE 21:36:27 53° E 21:42:22 10° NNE
Cosmos 1697 Rocket 4.0 21:33:23 10° NW 21:38:22 32° WSW 21:41:20 20° SSW
CZ-2C R/B 3.0 21:34:36 10° N 21:39:49 63° WNW 21:44:10 16° SSW
SL-24 R/B 3.6 21:36:29 10° NNE 21:40:11 74° ENE 21:40:11 74° ENE
Meteor 2-9 Rocket 4.5 21:40:40 45° SE 21:41:54 52° E 21:47:35 10° NNE
SL-16 R/B 2.3 21:37:26 10° NNW 21:43:06 63° ENE 21:44:41 45° ESE
APEX 3.9 21:38:20 10° NNW 21:43:41 57° NE 21:44:25 51° E
SJ 16-02 3.1 21:42:37 10° WSW 21:46:36 32° WNW 21:50:36 10° N
Cosmos 2074 Rocket 4.1 21:40:36 10° NNW 21:46:54 76° W 21:49:36 36° S
Terra 1.8 21:48:59 57° S 21:49:56 79° WSW 21:54:44 10° NNW
USA 229 DEB 4.4 21:43:39 10° NW 21:50:29 47° WSW 21:53:34 31° S
USA 229 4.4 21:43:45 10° NW 21:50:35 47° WSW 21:53:40 31° S
Cosmos 1048 Rocket 4.2 21:45:45 10° NNW 21:50:48 60° WSW 21:52:04 46° SSW
ARGOS Delta rocket 4.5 21:51:10 45° ESE 21:52:10 51° ENE 21:57:29 10° N
NOSS 3-1 (A) 4.1 21:46:45 10° NW 21:54:08 69° SW 21:57:30 39° SSE
Cosmos 2184 Rocket 4.1 21:49:57 10° NNW 21:56:04 68° W 21:58:32 37° SSW
COSMOS 2455 4.4 21:51:25 10° NNW 21:56:32 28° NNE 22:00:23 15° E
Okean 2 4.4 21:53:04 10° NNW 21:56:54 38° W 21:57:40 35° WSW
Cosmos 1025 Rocket 2.9 21:52:51 10° N 21:57:14 86° W 21:57:24 82° SSW
Cosmos 1536 Rocket 3.5 21:53:09 10° NNW 21:57:35 72° W 21:57:58 67° SW
Cosmos 2360 Rocket 3.0 21:52:22 10° NNW 21:57:42 41° NE 21:59:18 33° E
Cosmos 1842 3.3 21:55:51 10° NNW 21:59:35 73° WNW 21:59:35 73° WNW
ERS-1 Rocket 4.1 21:58:46 27° SW 22:00:41 37° W 22:05:21 10° NNW
Okean 2 Rocket 3.6 22:00:07 41° SW 22:01:17 55° WNW 22:05:39 10° N
Cosmos 2219 Rocket 4.1 21:57:44 10° NNW 22:02:01 22° NE 22:04:59 15° ENE
USA 267 4.0 21:55:52 10° ENE 22:02:10 53° N 22:08:29 10° W
Cosmos 1980 Rocket 3.2 21:57:43 10° NW 22:02:50 36° WSW 22:04:36 29° SW
Thor Agena Rocket 3.8 22:01:11 10° NNE 22:06:21 69° WNW 22:08:23 37° SW
COSMOS 2428 4.5 22:02:01 10° NNW 22:06:33 24° NE 22:09:24 17° ENE
Cosmos 1707 3.8 22:04:04 10° N 22:06:57 37° NE 22:06:57 37° NE
MOS 1 Rocket 3.7 22:03:28 10° N 22:08:53 78° WNW 22:10:35 45° SSW
IRAS Rocket 4.2 22:09:32 58° SE 22:10:33 73° ENE 22:16:09 10° NNW
Cosmos 1378 3.9 22:07:34 10° NNW 22:10:50 47° WNW 22:10:50 47° WNW
Meteor 1-21 4.4 22:08:46 10° NNW 22:14:22 64° W 22:15:39 50° SSW
Cosmos 1269 Rocket 4.0 22:09:05 10° NNW 22:14:22 74° WSW 22:15:01 65° SSW
FALCON 9 R/B 4.4 21:59:37 10° WSW 22:15:51 30° SSW 22:16:09 30° S
Cosmos 1125 Rocket 3.5 22:16:01 55° SW 22:17:11 81° WNW 22:22:29 10° NNE
Cosmos 1295 Rocket 4.4 22:11:06 10° N 22:17:29 86° E 22:18:54 57° SSE
SL-27 R/B 3.6 22:18:02 44° NW 22:18:02 44° NW 22:21:11 10° NNE
Cosmos 1975 3.8 22:18:56 40° W 22:19:19 41° WNW 22:23:08 10° N
Cosmos 1867 4.0 22:14:55 10° NW 22:20:11 49° WSW 22:20:37 48° SW
Cosmos 494 Rocket 4.1 22:16:00 10° NNW 22:21:04 62° WSW 22:21:30 60° SW
Cosmos 2341 Rocket 4.0 22:15:30 10° N 22:21:54 78° E 22:23:10 59° SSE
Lacrosse 4 Rocket 2.6 22:22:16 10° NNW 22:26:03 33° NE 22:26:03 33° NE
SPOT 5 4.2 22:25:43 24° WSW 22:26:24 25° W 22:30:01 10° NW
Landsat 4 4.5 22:23:04 10° N 22:26:04 51° N 22:26:04 51° N
ALOS 2 3.7 22:29:02 35° NE 22:29:02 35° NE 22:32:43 10° N
Cosmos 2237 Rocket 4.5 22:26:31 10° N 22:30:20 18° NNE 22:34:10 10° ENE
Spot 4 3.8 22:32:19 81° NE 22:32:19 81° NE 22:37:04 10° NNW
Cosmos 2322 4.3 22:28:48 10° NNW 22:34:21 47° NE 22:35:28 42° E
Meteor 1-12 Rocket 4.4 22:36:11 55° SW 22:37:29 75° WNW 22:43:22 10° N
ATLAS 2AS CENTAUR R/B 4.0 22:35:27 10° NW 22:42:55 41° NNE 22:49:22 12° E
SL-8 Rocket 3.9 22:37:09 10° N 22:43:29 80° E 22:44:21 67° SE
Meteor 2-17 Rocket 4.3 22:41:12 10° N 22:47:24 87° ENE 22:48:08 71° SSE
Cosmos 864 Rocket 4.4 22:43:00 10° N 22:49:08 68° ENE 22:49:46 63° ESE
Cosmos 2181 Rocket 3.8 22:49:11 69° SE 22:49:42 74° E 22:55:52 10° NNE
Helios 1A 3.7 22:53:56 52° NW 22:53:56 52° NW 22:57:14 10° NNW
Cosmos 2322 Rocket 2.6 22:48:32 10° NW 22:53:58 49° WSW 22:54:03 49° WSW
CZ-4C R/B 2.1 22:56:35 73° WSW 22:57:09 85° NW 23:03:26 10° NE
Cosmos 2333 Rocket 3.0 22:54:42 10° NNW 23:00:07 43° NE 23:01:12 39° E
Mayak -0.5 22:56:22 10° N 22:59:38 51° N 22:59:38 51° N
Okean 1 Rocket 3.9 23:02:05 45° WNW 23:02:05 45° WNW 23:05:55 10° N
Nimbus 7 Rocket 4.3 22:55:40 10° NNE 23:01:47 85° ESE 23:02:21 74° S
Meteor 1-15 Rocket 4.1 23:03:37 77° E 23:03:37 77° E 23:09:13 10° NNE
Cosmos 2251 Rocket 3.5 22:58:23 10° NNW 23:03:36 85° NNW 23:03:36 85° NNW
Cosmos 1455 Rocket 4.1 23:07:24 39° NE 23:07:24 39° NE 23:10:22 10° NNE
Cosmos 1437 Rocket 4.4 23:06:08 10° N 23:08:46 30° NNE 23:08:46 30° NNE
Cosmos 1959 Rocket 4.3 23:04:19 10° NNW 23:10:30 81° W 23:10:59 75° SSW
Meteor 1-4 Rocket 4.3 23:12:02 10° N 23:14:12 32° N 23:14:12 32° N
Cosmos 2082 Rocket 4.4 23:13:26 10° W 23:17:52 23° NW 23:22:21 10° NNE
Aureole 1 Rocket 4.0 23:10:59 10° NNW 23:18:59 85° WSW 23:19:54 70° S
Cosmos 2218 Rocket 4.0 23:15:17 10° NNW 23:21:38 68° W 23:22:17 64° SW
Cosmos 1626 Rocket 4.4 23:20:13 10° N 23:23:33 46° NNE 23:23:33 46° NNE
SL-16 R/B 3.6 23:22:11 10° NW 23:26:32 26° W 23:26:32 26° W
Terra 4.3 23:27:52 11° W 23:28:29 11° W 23:30:01 10° WNW
Meteor 1-22 Rocket 4.5 23:34:03 59° E 23:34:03 59° E 23:39:37 10° NNE
Cosmos 1602 Rocket 4.4 23:29:24 10° N 23:32:49 48° NNE 23:32:49 48° NNE
Meteor 1-24 Rocket 3.6 23:30:22 10° NNW 23:35:26 80° N 23:35:26 80° N
Cosmos 1626 4.3 23:33:19 10° N 23:35:13 22° NE 23:35:13 22° NE
Cosmos 2227 Rocket 4.5 23:40:16 11° E 23:40:16 11° E 23:41:24 10° ENE
Nadezhda 3 Rocket 4.1 23:39:39 59° E 23:39:48 59° E 23:45:50 10° NNE
Cosmos 2360 Rocket 2.9 23:36:27 10° NW 23:41:02 41° W 23:41:02 41° W
COSMOS 2455 2.7 23:37:14 10° NW 23:43:20 86° ENE 23:43:30 84° ESE
USA 267 3.8 23:38:19 10° E 23:44:42 57° NNE 23:51:05 10° WNW
Cosmos 2219 Rocket 2.1 23:41:13 10° NNW 23:46:41 81° NNE 23:46:41 81° NNE
Cosmos 1140 Rocket 4.4 23:42:08 10° NNW 23:47:05 40° ENE 23:47:43 38° ENE
NOSS 3-4 (A) 4.4 23:42:47 10° NW 23:49:22 51° NE 23:55:23 15° ESE
NOSS 3-4 (C) 4.5 23:42:53 10° NW 23:49:28 51° NE 23:55:36 15° ESE
COSMOS 2428 2.6 23:45:53 10° NNW 23:51:22 83° NNW 23:51:22 83° NNW
Cosmos 407 Rocket 3.8 23:46:45 10° NNW 23:51:48 60° NE 23:51:48 60° NE
Cosmos 2297 Rocket 4.2 23:55:27 16° E 23:55:27 16° E 23:58:17 10° ENE
